TimePST,TemperatureF,Dew PointF,Humidity,Sea Level PressureIn,VisibilityMPH,Wind Direction,Wind SpeedMPH,Gust SpeedMPH,PrecipitationIn,Events,Conditions,WindDirDegrees,DateUTC
12:55 AM,57.0,50.0,77,29.93,10.0,SSE,3.5,-,N/A,,Overcast,160,2011-11-19 08:55:00
1:55 AM,57.9,48.9,72,29.92,10.0,SE,4.6,-,N/A,,Overcast,130,2011-11-19 09:55:00
2:55 AM,54.0,48.0,80,29.91,10.0,ENE,5.8,-,N/A,,Clear,60,2011-11-19 10:55:00
4:23 AM,53.6,48.2,82,29.88,10.0,ENE,4.6,-,N/A,,Mostly Cloudy,60,2011-11-19 12:23:00
4:37 AM,53.6,48.2,82,29.88,10.0,ENE,3.5,-,N/A,,Overcast,70,2011-11-19 12:37:00
4:55 AM,55.0,48.9,80,29.91,10.0,ENE,5.8,-,N/A,,Overcast,60,2011-11-19 12:55:00
5:55 AM,53.1,48.0,83,29.92,10.0,Calm,Calm,-,N/A,,Overcast,0,2011-11-19 13:55:00
6:03 AM,53.6,48.2,82,29.89,10.0,Calm,Calm,-,N/A,,Overcast,0,2011-11-19 14:03:00
6:29 AM,53.6,48.2,82,29.89,10.0,East,3.5,-,N/A,,Scattered Clouds,90,2011-11-19 14:29:00
6:55 AM,53.1,48.0,83,29.93,10.0,Calm,Calm,-,N/A,,Mostly Cloudy,0,2011-11-19 14:55:00
7:28 AM,53.6,48.2,82,29.92,10.0,ENE,5.8,-,N/A,,Partly Cloudy,60,2011-11-19 15:28:00
7:55 AM,55.9,48.9,77,29.94,10.0,East,8.1,-,N/A,,Partly Cloudy,80,2011-11-19 15:55:00
8:55 AM,60.1,50.0,69,29.95,10.0,East,3.5,-,N/A,,Partly Cloudy,90,2011-11-19 16:55:00
9:55 AM,62.1,48.9,62,29.96,10.0,SW,3.5,-,N/A,,Clear,220,2011-11-19 17:55:00
11:55 AM,64.9,46.0,50,29.93,10.0,SW,5.8,-,N/A,,Clear,230,2011-11-19 19:55:00
12:55 PM,64.9,46.9,52,29.92,10.0,SSW,8.1,-,N/A,,Partly Cloudy,200,2011-11-19 20:55:00
1:55 PM,64.0,46.9,54,29.91,10.0,West,8.1,-,N/A,,Scattered Clouds,260,2011-11-19 21:55:00
2:55 PM,64.0,46.9,54,29.91,10.0,WSW,6.9,-,N/A,,Clear,250,2011-11-19 22:55:00
3:55 PM,62.1,46.9,58,29.91,10.0,WSW,6.9,-,N/A,,Clear,250,2011-11-19 23:55:00
4:55 PM,61.0,48.0,62,29.91,10.0,WSW,3.5,-,N/A,,Clear,240,2011-11-20 00:55:00
5:55 PM,57.9,48.9,72,29.91,10.0,SSW,3.5,-,N/A,,Clear,210,2011-11-20 01:55:00
6:55 PM,55.9,48.0,75,29.94,10.0,SSE,4.6,-,N/A,,Partly Cloudy,150,2011-11-20 02:55:00
7:12 PM,55.4,48.2,77,29.92,10.0,SSE,3.5,-,N/A,,Mostly Cloudy,160,2011-11-20 03:12:00
7:42 PM,55.4,48.2,77,29.92,10.0,SSE,4.6,-,N/A,,Mostly Cloudy,150,2011-11-20 03:42:00
7:55 PM,55.9,48.0,75,29.96,10.0,SSE,4.6,-,N/A,,Mostly Cloudy,150,2011-11-20 03:55:00
8:55 PM,54.0,46.9,77,29.96,10.0,Calm,Calm,-,N/A,,Clear,0,2011-11-20 04:55:00
10:55 PM,55.9,48.9,77,29.97,10.0,East,3.5,-,N/A,,Overcast,80,2011-11-20 06:55:00
11:44 PM,55.4,51.8,88,29.95,10.0,Calm,Calm,-,0.02,Rain,Light Rain,0,2011-11-20 07:44:00
11:55 PM,55.9,50.0,80,29.97,10.0,Calm,Calm,-,0.02,,Overcast,0,2011-11-20 07:55:00